This is the latest recevied weather packets stored in our database for station/object KE0PRS. If no packets are shown the sender has not sent any weather packets the latest 10 day(s).
| Time | Temp. | Humidity | Pressure | Rain* | Wind** | Luminosity | Snow |
|---|---|---|---|---|---|---|---|
| 1787869396 | 32.78° C | 45% | 1019.1 hPa | 0 mm | - | 379 W/m² | - |
| 1787869091 | 32.78° C | 46% | 1019.2 hPa | 0 mm | - | 397 W/m² | - |
| 1787868789 | 32.78° C | 45% | 1019.2 hPa | 0 mm | - | 410 W/m² | - |
| 1787868489 | 32.78° C | 44% | 1019.4 hPa | 0 mm | - | 427 W/m² | - |
| 1787868188 | 32.78° C | 44% | 1019.4 hPa | 0 mm | - | 444 W/m² | - |
| 1787867883 | 32.78° C | 43% | 1019.5 hPa | 0 mm | - | 452 W/m² | - |
| 1787867579 | 32.78° C | 45% | 1019.5 hPa | 0 mm | - | 468 W/m² | - |
| 1787867278 | 32.78° C | 46% | 1019.6 hPa | 0 mm | - | 481 W/m² | - |
| 1787866975 | 32.78° C | 45% | 1019.6 hPa | 0 mm | - | 497 W/m² | - |
| 1787866670 | 32.78° C | 46% | 1019.5 hPa | 0 mm | - | 509 W/m² | - |
| 1787866368 | 32.78° C | 45% | 1019.8 hPa | 0 mm | - | 525 W/m² | - |
| 1787866063 | 32.78° C | 44% | 1019.8 hPa | 0 mm | - | 541 W/m² | - |
| 1787865758 | 32.22° C | 46% | 1019.7 hPa | 0 mm | - | 551 W/m² | - |
| 1787865453 | 32.22° C | 46% | 1019.9 hPa | 0 mm | - | 561 W/m² | - |
| 1787865147 | 32.22° C | 46% | 1019.9 hPa | 0 mm | - | 569 W/m² | - |
| 1787864845 | 32.22° C | 46% | 1020.2 hPa | 0 mm | - | 583 W/m² | - |
| 1787864544 | 32.22° C | 45% | 1019.8 hPa | 0 mm | - | 597 W/m² | - |
| 1787864239 | 32.22° C | 45% | 1020 hPa | 0 mm | - | 607 W/m² | - |
| 1787863934 | 32.22° C | 45% | 1020.1 hPa | 0 mm | - | 613 W/m² | - |
| 1787863632 | 32.22° C | 46% | 1020.3 hPa | 0 mm | - | 626 W/m² | - |
| 1787863331 | 31.67° C | 47% | 1020.3 hPa | 0 mm | - | 634 W/m² | - |
| 1787863027 | 31.67° C | 46% | 1020.2 hPa | 0 mm | - | 645 W/m² | - |
| 1787862722 | 32.22° C | 45% | 1020.3 hPa | 0 mm | - | 655 W/m² | - |
| 1787862417 | 32.22° C | 48% | 1020.3 hPa | 0 mm | - | 663 W/m² | - |
| 1787862113 | 32.22° C | 46% | 1020.4 hPa | 0 mm | - | 675 W/m² | - |
* Rain latest hour (hover to see other rain measurements)
** Current wind speed in m/s (hover to see current wind gust speed)